This demonstration page uses our WeatherBlox Daily Observations layout. Learn more.

Left ArrowRight Arrow

Hourly Observations for October 1, 2022

Temp ( °F °C ) Dew Point ( °F °C ) Humidity (%) Winds ( mph kmh ) Pressure ( in mb ) Visibility ( mi km ) Precip ( " mm )
12:53 am 00:53 Clear 60 15.6 42 5.6 51 51 NW 5 7 29.80 1009 10 16 0.00 0.00
1:53 am 01:53 Clear 59 15 42 5.6 53 53 Calm 29.81 1009 10 16 0.00 0.00
2:53 am 02:53 Clear 58 14.4 43 6.1 57 57 VRB 3 6 29.80 1009 10 16 0.00 0.00
3:53 am 03:53 Clear 57 13.9 43 6.1 59 59 NNW 3 6 29.80 1009 10 16 0.00 0.00
4:53 am 04:53 Clear 57 13.9 42 5.6 57 57 NW 6 9 29.79 1009 10 16 0.00 0.00
5:53 am 05:53 Clear 56 13.3 42 5.6 60 60 W 5 7 29.80 1009 10 16 0.00 0.00
6:53 am 06:53 Clear 55 12.8 42 5.6 62 62 VRB 7 11 29.81 1010 10 16 0.00 0.00
7:53 am 07:53 Sunny 54 12.2 42 5.6 64 64 WNW 8 13 29.84 1010 10 16 0.00 0.00
8:53 am 08:53 Sunny 58 14.4 44 6.7 60 60 VRB 5 7 29.86 1011 10 16 0.00 0.00
9:53 am 09:53 Sunny 61 16.1 45 7.2 56 56 NW 9 15 29.86 1011 10 16 0.00 0.00
10:53 am 10:53 Sunny 65 18.3 45 7.2 48 48 NW 10 17 29.87 1012 10 16 0.00 0.00
11:53 am 11:53 Sunny 68 20 48 8.9 49 49 NNW 12 19 29.86 1011 10 16 0.00 0.00
12:53 pm 12:53 Sunny 72 22.2 50 10 46 46 NNW 14 22 29.86 1011 10 16 0.00 0.00
1:53 pm 13:53 Sunny 75 23.9 52 11.1 45 45 NW 16 26 29.84 1011 10 16 0.00 0.00
2:53 pm 14:53 Sunny 77 25 53 11.7 43 43 NW 16 26 29.83 1010 10 16 0.00 0.00
3:53 pm 15:53 Sunny 78 25.6 54 12.2 43 43 NW 17 28 29.83 1010 10 16 0.00 0.00
4:53 pm 16:53 Sunny 77 25 54 12.2 45 45 NNW 14 22 29.85 1011 10 16 0.00 0.00
5:53 pm 17:53 Mostly Cloudy 74 23.3 53 11.7 48 48 N 15 24 29.87 1011 10 16 0.00 0.00
6:53 pm 18:53 Mostly Sunny 71 21.7 52 11.1 51 51 N 13 20 29.90 1013 10 16 0.00 0.00
7:53 pm 19:53 Mostly Clear 68 20 52 11.1 57 57 NNW 6 9 29.91 1013 10 16 0.00 0.00
8:53 pm 20:53 Clear 66 18.9 52 11.1 61 61 N 3 6 29.93 1014 10 16 0.00 0.00
9:53 pm 21:53 Clear 63 17.2 53 11.7 70 70 N 5 7 29.94 1014 10 16 0.00 0.00
10:53 pm 22:53 Clear 61 16.1 53 11.7 75 75 N 3 6 29.95 1014 10 16 0.00 0.00
11:53 pm 23:53 Clear 61 16.1 51 10.6 70 70 NNW 5 7 29.95 1014 10 16 0.00 0.00

Powered by AerisWeather